[[{"header":{"parameterUnit":"m.s-1","parameterCategory":1,"la1":30.2991,"la2":30.254,"lo1":-89.0895,"lo2":-89.0444,"dy":0.0017,"dx":0.0017,"nx":28,"ny":28,"refTime":"2023-09-26T21:00:00:Z","depth":0,"parameterNumber":2,"parameterNumberName":"U-component_of_WINDS"},"data":[0,0,0,0,0,0,0,0,0,0,0,0,0,0,0,0,0,0,0,0,0,0,0,0,0,0,0,0,0,0,0,0,0,0,0,0,0,0,0,0,0,0,0,0,0,0,0,0,0,0,0,0,0,0,0,0,0,0,-2.4952,-2.4951,0,-2.4817,-2.4816,-2.4814,-2.4715,-2.4714,-2.4713,-2.4712,-2.4574,-2.4571,-2.4568,0,0,0,0,0,0,0,0,0,0,0,0,0,-2.5124,-2.5121,-2.4952,-2.4951,-2.4949,-2.4818,-2.4816,-2.4814,-2.4715,-2.4714,-2.4713,-2.4712,-2.4575,-2.4571,-2.4568,0,0,0,0,0,0,0,0,0,0,0,0,0,-2.5025,-2.512,-2.4953,-2.4884,-2.4876,-2.4818,-2.4816,-2.4813,-2.4715,-2.4714,-2.4713,-2.4712,-2.4576,-2.4572,-2.4567,-2.4567,0,0,-2.4554,-2.4552,0,0,0,0,0,0,0,0,-2.5031,-2.5019,-2.4896,-2.4889,-2.488,-2.4782,-2.4825,-2.4731,-2.4716,-2.4776,-2.4712,-2.4711,-2.4644,-2.4634,-2.4611,-2.456,-2.4554,-2.4554,-2.4551,-2.4549,-2.4548,0,0,0,0,0,0,0,-2.5038,-2.5024,-2.4899,-2.4894,-2.4884,-2.4859,-2.4844,-2.4807,-2.4719,-2.4771,-2.4764,-2.4749,-2.4639,-2.4616,-2.4608,-2.4552,-2.4554,-2.455,-2.4547,-2.4546,-2.4493,-2.4494,0,0,0,0,0,0,-2.5055,-2.5031,-2.4903,-2.4895,-2.4954,-2.4857,-2.484,-2.4815,-2.4719,-2.4703,-2.475,-2.4745,-2.4624,-2.4613,-2.4602,-2.4595,-2.4549,-2.4545,-2.4543,-2.4491,-2.4493,-2.4494,0,0,0,0,0,0,-2.506,-2.5045,-2.4909,-2.4961,-2.4941,-2.4856,-2.4828,-2.4813,-2.4789,-2.4703,-2.4687,-2.4742,-2.4622,-2.4608,-2.4576,-2.4589,-2.4543,-2.4539,-2.449,-2.4492,-2.4493,-2.458,0,0,0,0,0,0,-2.5065,-2.5047,-2.5046,-2.4961,-2.4939,-2.4885,-2.4829,-2.4811,-2.4782,-2.4773,-2.4692,-2.4677,-2.462,-2.4583,-2.4572,-2.4582,-2.4536,-2.4488,-2.4491,-2.4493,-2.4576,-2.4585,-2.4592,0,0,0,0,0,-2.5071,-2.5076,-2.5047,-2.5032,-2.4936,-2.4886,-2.4873,-2.4808,-2.4783,-2.4781,-2.4726,-2.468,-2.4589,-2.4581,-2.4567,-2.4576,-2.4487,-2.449,-2.4493,-2.4572,-2.4583,-2.4592,0,0,0,0,0,0,-2.5164,-2.5064,-2.503,-2.5007,-2.4956,-2.487,-2.4865,-2.4822,-2.4776,-2.4771,-2.4692,-2.4674,-2.465,-2.4609,-2.4602,-2.457,-2.4532,-2.4532,-2.4597,-2.4607,-2.4615,-2.4625,-2.4532,0,0,0,0,0,-2.5182,-2.5151,-2.5064,-2.5052,-2.5028,-2.4952,-2.4927,-2.4882,-2.4825,-2.4803,-2.4746,-2.4693,-2.4652,-2.4627,-2.4585,-2.4569,-2.455,-2.4569,-2.4577,-2.4584,-2.4585,-2.4574,-2.4581,-2.4503,-2.4503,-2.4503,0,0,-2.5219,-2.516,-2.5145,-2.507,-2.5024,-2.4993,-2.4934,-2.4903,-2.4879,-2.4798,-2.4764,-2.4721,-2.4656,-2.4632,-2.4619,-2.4598,-2.4602,-2.4587,-2.4594,-2.4591,-2.4577,-2.4585,-2.4591,-2.4505,-2.4504,-2.4504,0,0,-2.527,-2.5222,-2.5207,-2.5163,-2.5095,-2.5044,-2.5041,-2.496,-2.4928,-2.4893,-2.4832,-2.4802,-2.4733,-2.469,-2.4659,-2.4693,-2.4649,-2.4682,-2.4725,-2.4715,-2.4721,-2.4726,-2.4738,-2.4744,-2.4683,-2.4683,-2.4683,0,-2.5324,-2.5274,-2.5205,-2.5177,-2.5146,-2.5072,-2.5056,-2.5016,-2.4939,-2.4919,-2.4896,-2.4809,-2.476,-2.4725,-2.4733,-2.4711,-2.4704,-2.4691,-2.4726,-2.473,-2.4734,-2.4745,-2.4749,-2.4688,-2.4687,-2.4687,-2.4686,0,-2.5344,-2.5311,-2.5306,-2.5234,-2.5202,-2.5181,-2.5107,-2.5083,-2.504,-2.4992,-2.4956,-2.4895,-2.484,-2.4828,-2.4785,-2.4786,-2.4775,-2.4741,-2.4701,-2.4747,-2.4756,-2.4759,-2.4694,-2.4693,-2.4691,-2.469,0,0,-2.545,-2.5339,-2.5338,-2.5304,-2.5224,-2.5197,-2.5172,-2.5118,-2.5099,-2.5047,-2.5025,-2.4968,-2.4935,-2.49,-2.4852,-2.4843,-2.4875,-2.4809,-2.4806,-2.4824,-2.4872,-2.4899,-2.4905,-2.4844,-2.4845,-2.4845,-2.4878,0,-2.5489,-2.544,-2.5377,-2.535,-2.5318,-2.5246,-2.5225,-2.5173,-2.5127,-2.5093,-2.5041,-2.5003,-2.4962,-2.494,-2.4928,-2.4874,-2.4883,-2.487,-2.4822,-2.4822,-2.4841,-2.491,-2.4938,-2.4972,-2.4881,-2.4881,-2.4881,0,-2.5527,-2.548,-2.545,-2.5373,-2.5357,-2.5339,-2.5283,-2.5252,-2.5192,-2.5158,-2.512,-2.5068,-2.5038,-2.5002,-2.496,-2.4952,-2.4929,-2.4899,-2.4899,-2.4892,-2.4855,-2.4906,-2.4981,-2.4987,-2.4886,-2.4886,-2.4885,0,-2.5608,-2.5537,-2.551,-2.5483,-2.5392,-2.538,-2.5342,-2.528,-2.5252,-2.5203,-2.5184,-2.5133,-2.5105,-2.5066,-2.5002,-2.4982,-2.4967,-2.4926,-2.4938,-2.494,-2.4939,-2.494,-2.5012,-2.4923,-2.4923,-2.4923,-2.4923,0,-2.5658,-2.5643,-2.5545,-2.5529,-2.5509,-2.5436,-2.5418,-2.5373,-2.5319,-2.5292,-2.5227,-2.5203,-2.5119,-2.5085,-2.5035,-2.5007,-2.4995,-2.4968,-2.4954,-2.4974,-2.4977,-2.4958,-2.4954,-2.4924,-2.4924,-2.4924,-2.4924,0,-2.5746,-2.5679,-2.5645,-2.5561,-2.554,-2.5529,-2.5457,-2.5438,-2.5388,-2.5355,-2.5343,-2.5264,-2.5221,-2.5152,-2.5089,-2.5055,-2.5037,-2.5015,-2.5057,-2.5049,-2.5066,-2.5065,-2.5128,-2.5133,-2.5042,-2.5043,-2.5043,0,-2.5782,-2.5769,-2.5683,-2.5661,-2.5625,-2.5589,-2.5559,-2.5486,-2.5458,-2.5388,-2.5378,-2.533,-2.5287,-2.5222,-2.5159,-2.511,-2.5086,-2.5112,-2.5079,-2.5098,-2.5087,-2.5089,-2.5087,-2.512,-2.5121,-2.5122,-2.5123,0,-2.5854,-2.5822,-2.5782,-2.573,-2.5697,-2.5653,-2.5605,-2.559,-2.5507,-2.5478,-2.5433,-2.5401,-2.5336,-2.5289,-2.5232,-2.5191,-2.5144,-2.5134,-2.5134,-2.5154,-2.518,-2.5166,-2.5079,-2.5133,-2.5132,-2.5131,-2.5131,-2.513,-2.5917,-2.5902,-2.5839,-2.5797,-2.5753,-2.5711,-2.5689,-2.5635,-2.5597,-2.5539,-2.5498,-2.5455,-2.5395,-2.5313,-2.5275,-2.5241,-2.522,-2.5221,-2.5221,-2.5222,-2.5229,-2.5185,-2.523,-2.523,-2.5229,-2.5229,-2.5229,0,-2.5986,-2.5942,-2.5904,-2.584,-2.5806,-2.5764,-2.5709,-2.5684,-2.5647,-2.5595,-2.5555,-2.5503,-2.5457,-2.539,-2.5339,-2.5325,-2.5302,-2.5314,-2.5315,-2.5306,-2.5251,-2.5256,-2.5334,-2.5334,-2.5334,-2.5334,-2.5334,-2.5334,-2.6018,-2.599,-2.595,-2.59,-2.5856,-2.5814,-2.5786,-2.5746,-2.5704,-2.565,-2.5611,-2.5568,-2.5509,-2.5454,-2.541,-2.5391,-2.5375,-2.5395,-2.537,-2.532,-2.531,-2.5301,-2.5305,-2.5392,-2.5392,-2.5428,-2.5428,-2.5428]},{"header":{"parameterUnit":"m.s-1","parameterCategory":1,"la1":30.2991,"la2":30.254,"lo1":-89.0895,"lo2":-89.0444,"dy":0.0017,"dx":0.0017,"nx":28,"ny":28,"refTime":"2023-09-26T21:00:00:Z","depth":0,"parameterNumber":3,"parameterNumberName":"V-component_of_WINDS"},"data":[0,0,0,0,0,0,0,0,0,0,0,0,0,0,0,0,0,0,0,0,0,0,0,0,0,0,0,0,0,0,0,0,0,0,0,0,0,0,0,0,0,0,0,0,0,0,0,0,0,0,0,0,0,0,0,0,0,0,-1.6401,-1.6401,0,-1.6432,-1.6432,-1.6433,-1.6446,-1.6446,-1.6446,-1.6446,-1.6475,-1.6476,-1.6477,0,0,0,0,0,0,0,0,0,0,0,0,0,-1.6351,-1.6352,-1.6401,-1.6401,-1.6401,-1.6432,-1.6432,-1.6433,-1.6446,-1.6446,-1.6446,-1.6446,-1.6475,-1.6476,-1.6477,0,0,0,0,0,0,0,0,0,0,0,0,0,-1.6376,-1.6352,-1.6401,-1.6412,-1.6413,-1.6432,-1.6432,-1.6433,-1.6446,-1.6446,-1.6446,-1.6446,-1.6475,-1.6476,-1.6477,-1.6486,0,0,-1.6481,-1.6481,0,0,0,0,0,0,0,0,-1.6375,-1.6378,-1.641,-1.6411,-1.6413,-1.6435,-1.6426,-1.6451,-1.6446,-1.6434,-1.6446,-1.6446,-1.6462,-1.6464,-1.647,-1.6488,-1.6489,-1.6481,-1.6482,-1.6482,-1.6483,0,0,0,0,0,0,0,-1.6373,-1.6377,-1.6413,-1.641,-1.6412,-1.6415,-1.6418,-1.643,-1.6448,-1.6435,-1.6436,-1.6439,-1.6463,-1.6469,-1.6471,-1.6489,-1.6481,-1.6482,-1.6483,-1.6483,-1.6518,-1.6518,0,0,0,0,0,0,-1.637,-1.6375,-1.6412,-1.6414,-1.6393,-1.6416,-1.642,-1.6428,-1.6448,-1.6451,-1.6439,-1.644,-1.6467,-1.6469,-1.6472,-1.6486,-1.6482,-1.6483,-1.6484,-1.6518,-1.6518,-1.6518,0,0,0,0,0,0,-1.6369,-1.6373,-1.6411,-1.6395,-1.64,-1.6417,-1.6426,-1.6429,-1.6435,-1.6451,-1.6454,-1.6443,-1.6467,-1.647,-1.6483,-1.6487,-1.6484,-1.6485,-1.6518,-1.6518,-1.6518,-1.6512,0,0,0,0,0,0,-1.6367,-1.6372,-1.6376,-1.6395,-1.6401,-1.6422,-1.6426,-1.6429,-1.6437,-1.6438,-1.6455,-1.6458,-1.6467,-1.6481,-1.6485,-1.6488,-1.6486,-1.6517,-1.6518,-1.6518,-1.6512,-1.6512,-1.6512,0,0,0,0,0,-1.6365,-1.6372,-1.6376,-1.6381,-1.6406,-1.6422,-1.6425,-1.6437,-1.6438,-1.6442,-1.6452,-1.6457,-1.6486,-1.6483,-1.6486,-1.649,-1.6517,-1.6518,-1.6518,-1.6512,-1.6512,-1.6512,0,0,0,0,0,0,-1.6351,-1.6374,-1.638,-1.6393,-1.6406,-1.6424,-1.643,-1.6436,-1.6448,-1.6448,-1.6461,-1.6464,-1.6477,-1.6485,-1.6481,-1.6501,-1.6502,-1.6503,-1.6496,-1.6496,-1.6496,-1.6494,-1.6487,0,0,0,0,0,-1.635,-1.6362,-1.6381,-1.6391,-1.6397,-1.6412,-1.642,-1.6428,-1.6441,-1.6446,-1.6458,-1.647,-1.6482,-1.6489,-1.6501,-1.6513,-1.6517,-1.6517,-1.6517,-1.6517,-1.6518,-1.6527,-1.6528,-1.6519,-1.6519,-1.6519,0,0,-1.6347,-1.6361,-1.6368,-1.6389,-1.6399,-1.6411,-1.6417,-1.6428,-1.6437,-1.6447,-1.6461,-1.647,-1.6485,-1.6498,-1.6504,-1.6505,-1.6522,-1.6518,-1.6518,-1.6519,-1.6527,-1.6528,-1.6529,-1.652,-1.652,-1.652,0,0,-1.6348,-1.6359,-1.637,-1.6381,-1.6399,-1.6409,-1.6411,-1.643,-1.6437,-1.6451,-1.6459,-1.647,-1.6489,-1.65,-1.6508,-1.6515,-1.6521,-1.6518,-1.6519,-1.6527,-1.6528,-1.6528,-1.6532,-1.6533,-1.6519,-1.6519,-1.6519,0,-1.6342,-1.6361,-1.6374,-1.6387,-1.6396,-1.6407,-1.6418,-1.6428,-1.6447,-1.6454,-1.6454,-1.6481,-1.6491,-1.6508,-1.651,-1.6515,-1.6519,-1.6517,-1.6527,-1.6527,-1.6528,-1.6532,-1.6533,-1.6519,-1.6519,-1.6519,-1.6519,0,-1.6353,-1.6367,-1.6373,-1.6394,-1.6403,-1.6415,-1.643,-1.6438,-1.6445,-1.6456,-1.6471,-1.6484,-1.6499,-1.6504,-1.651,-1.6522,-1.6522,-1.6524,-1.6525,-1.6529,-1.6533,-1.6534,-1.6519,-1.6519,-1.6519,-1.6519,0,0,-1.6345,-1.6375,-1.6377,-1.6388,-1.6408,-1.6419,-1.6431,-1.6447,-1.6455,-1.6468,-1.6479,-1.6497,-1.65,-1.6509,-1.6517,-1.6524,-1.6531,-1.6526,-1.6526,-1.6527,-1.6546,-1.6545,-1.6546,-1.6534,-1.6535,-1.6535,-1.6545,0,-1.635,-1.6374,-1.6387,-1.6405,-1.6419,-1.643,-1.6441,-1.6455,-1.6465,-1.6477,-1.6488,-1.6501,-1.6503,-1.6509,-1.6517,-1.6528,-1.6535,-1.6527,-1.6545,-1.6545,-1.6542,-1.6548,-1.6546,-1.6555,-1.6547,-1.6547,-1.6547,0,-1.6359,-1.6374,-1.6394,-1.6416,-1.6421,-1.6431,-1.6448,-1.646,-1.6476,-1.6483,-1.6494,-1.6502,-1.6516,-1.6515,-1.6535,-1.6529,-1.6537,-1.6544,-1.6545,-1.6547,-1.6547,-1.6552,-1.6558,-1.656,-1.6549,-1.6549,-1.6549,0,-1.6353,-1.6378,-1.6394,-1.6403,-1.6427,-1.6434,-1.6445,-1.6461,-1.6471,-1.6485,-1.6492,-1.6507,-1.6516,-1.6527,-1.654,-1.6538,-1.6558,-1.6558,-1.6565,-1.6564,-1.6569,-1.6568,-1.6578,-1.6572,-1.6572,-1.6572,-1.6572,0,-1.6357,-1.6369,-1.6393,-1.6402,-1.6417,-1.6432,-1.6445,-1.6456,-1.6471,-1.6483,-1.6493,-1.6504,-1.6519,-1.6532,-1.6541,-1.6557,-1.656,-1.6566,-1.6569,-1.6566,-1.6565,-1.6572,-1.6572,-1.6572,-1.6572,-1.6572,-1.6572,0,-1.6353,-1.6369,-1.6388,-1.6411,-1.6417,-1.6426,-1.6445,-1.6455,-1.6467,-1.6482,-1.6486,-1.6504,-1.652,-1.6533,-1.6553,-1.656,-1.6576,-1.6578,-1.6571,-1.6573,-1.6579,-1.6578,-1.6593,-1.6596,-1.6587,-1.6587,-1.6587,0,-1.6356,-1.6366,-1.639,-1.64,-1.6411,-1.6426,-1.6437,-1.6452,-1.6463,-1.6483,-1.6491,-1.6508,-1.6522,-1.6547,-1.6561,-1.6577,-1.658,-1.6585,-1.6583,-1.658,-1.6582,-1.6582,-1.6583,-1.6585,-1.6585,-1.6585,-1.6585,0,-1.6358,-1.6366,-1.6382,-1.6402,-1.6415,-1.643,-1.6445,-1.6452,-1.647,-1.6482,-1.6499,-1.6511,-1.6533,-1.655,-1.6568,-1.6578,-1.6584,-1.6585,-1.6588,-1.6586,-1.6582,-1.6585,-1.6573,-1.6585,-1.6585,-1.6585,-1.6585,-1.6585,-1.6358,-1.6369,-1.6389,-1.6406,-1.642,-1.6435,-1.6446,-1.646,-1.6475,-1.6496,-1.6503,-1.6521,-1.6538,-1.6563,-1.6574,-1.6588,-1.6589,-1.6592,-1.6593,-1.6594,-1.6594,-1.6579,-1.6591,-1.6591,-1.6591,-1.6591,-1.6591,0,-1.6363,-1.6377,-1.6393,-1.6416,-1.643,-1.6437,-1.6455,-1.6466,-1.6482,-1.6498,-1.6513,-1.6534,-1.6551,-1.6567,-1.6585,-1.6593,-1.6597,-1.6597,-1.6597,-1.66,-1.6591,-1.6588,-1.6594,-1.6594,-1.6594,-1.6594,-1.6594,-1.6594,-1.6367,-1.6386,-1.6396,-1.6422,-1.6436,-1.6455,-1.6465,-1.6479,-1.6492,-1.6515,-1.653,-1.6541,-1.6557,-1.6577,-1.6593,-1.6597,-1.6603,-1.6603,-1.6608,-1.66,-1.66,-1.66,-1.6597,-1.6604,-1.6604,-1.6616,-1.6616,-1.6616]}]]